Weather History for Luverne, MN

Change the Weather History Date:

Thursday, November 7, 2013

  Actual Average (KFSD) Record (KFSD)
Temperature  
Mean Temperature 27 °F 38 °F  
Max Temperature 35 °F 48 °F 74 °F (1904)
Min Temperature 19 °F 27 °F -9 °F (1991)
Degree Days  
Heating Degree Days 38 27  
Month to date heating degree days 180  
Since 1 July heating degree days 920  
Cooling Degree Days 0 0  
Month to date cooling degree days 0  
Year to date cooling degree days 690  
Moisture  
Dew Point 25 °F    
Average Humidity 87    
Maximum Humidity 100    
Minimum Humidity 65    
Precipitation  
Precipitation 0.00 in 0.05 in 0.85 in (1944)
Month to date precipitation 0.32  
Year to date precipitation 24.65  
Snow  
Snow 0.00 in 0.20 in 5.50 in (1924)
Month to date snowfall 1.1  
Since 1 July snowfall 2.4  
Since 1 September snowfall 2.4  
Snow Depth -    
Sea Level Pressure  
Sea Level Pressure 30.26 in    
Wind  
Wind Speed 6 mph (West)    
Max Wind Speed 14 mph    
Max Gust Speed 18 mph    
Visibility 7 miles    
Events Fog    
T = Trace of Precipitation, MM = Missing Value Source: NWS Daily Summary

Daily Weather History Graph

Daily Weather History Graph

Search for Another Location

Airport:

Trip Planner

Search our weather history database for the weather conditions in past years. The results will help you decide how hot, cold, wet, or windy it might be!

Date:

Astronomy

Nov. 07, 2013 Rise Set
Actual Time 7:08 AM CST 5:07 PM CST
Civil Twilight 6:38 AM CST 5:38 PM CST
Nautical Twilight 6:04 AM CST 6:12 PM CST
Astronomical Twilight 5:30 AM CST 6:45 PM CST
Moon 11:19 AM CST (11/7) 9:19 PM CST (11/7)
Length of Visible Light 10h 59m
Length of Day
9h 59m
Waxing Crescent, 23% of the Moon is Illuminated
Nov 7
Waxing Crescent
Nov 9
First Quarter
Nov 17
Full
Nov 25
Last Quarter
Dec 2
New

Hourly Weather History & Observations

Time (CST) Temp. Windchill Dew Point Humidity Pressure Visibility Wind Dir Wind Speed Gust Speed Precip Events Conditions
12:13 AM 32.0 °F 25.6 °F 32.0 °F 100% 30.21 in 10.0 mi WNW 6.9 mph - N/A   Overcast
12:33 AM 32.0 °F 24.8 °F 32.0 °F 100% 30.21 in 10.0 mi West 8.1 mph - N/A   Overcast
12:53 AM 32.0 °F 26.4 °F 32.0 °F 100% 30.21 in 10.0 mi WNW 5.8 mph - N/A   Overcast
1:13 AM 32.0 °F 25.6 °F 30.2 °F 93% 30.21 in 10.0 mi West 6.9 mph - N/A   Overcast
1:33 AM 32.0 °F 25.6 °F 30.2 °F 93% 30.22 in 10.0 mi West 6.9 mph - N/A   Overcast
1:53 AM 32.0 °F 25.6 °F 30.2 °F 93% 30.22 in 5.0 mi West 6.9 mph - N/A   Overcast
2:13 AM 32.0 °F 25.6 °F 30.2 °F 93% 30.22 in 1.0 mi WNW 6.9 mph - N/A   Overcast
2:33 AM 30.2 °F 24.3 °F 30.2 °F 100% 30.22 in 2.5 mi NNW 5.8 mph - N/A   Overcast
2:53 AM 30.2 °F 23.4 °F 28.4 °F 93% 30.21 in 1.2 mi NNW 6.9 mph - N/A   Overcast
3:13 AM 28.4 °F 23.3 °F 28.4 °F 100% 30.22 in 1.0 mi NW 4.6 mph - N/A   Overcast
3:33 AM 28.4 °F 24.6 °F 26.6 °F 93% 30.21 in 0.5 mi North 3.5 mph - N/A Fog Light Freezing Fog
3:53 AM 28.4 °F 24.6 °F 26.6 °F 93% 30.21 in 0.5 mi NW 3.5 mph - N/A Fog Light Freezing Fog
4:13 AM 26.6 °F - 26.6 °F 100% 30.23 in 0.2 mi Calm Calm - N/A Fog Light Freezing Fog
4:33 AM 26.6 °F - 24.8 °F 93% 30.23 in 0.2 mi Calm Calm - N/A Fog Light Freezing Fog
4:53 AM 26.6 °F 22.6 °F 23.0 °F 86% 30.23 in 0.2 mi WNW 3.5 mph - N/A Fog Light Freezing Fog
5:13 AM 24.8 °F 19.1 °F 23.0 °F 93% 30.24 in 0.2 mi West 4.6 mph - N/A Fog Light Freezing Fog
5:33 AM 24.8 °F - 23.0 °F 93% 30.24 in 0.2 mi Calm Calm - N/A Fog Light Freezing Fog
5:54 AM 23.0 °F 18.4 °F 21.2 °F 93% 30.25 in 0.2 mi West 3.5 mph - N/A Fog Light Freezing Fog
6:13 AM 21.2 °F 16.4 °F 19.4 °F 93% 30.26 in 0.5 mi WSW 3.5 mph - N/A Fog Light Freezing Fog
6:33 AM 21.2 °F - 19.4 °F 93% 30.26 in 0.5 mi Calm Calm - N/A Fog Light Freezing Fog
6:54 AM 21.2 °F - 19.4 °F 93% 30.26 in 0.2 mi Calm Calm - N/A Fog Light Freezing Fog
7:13 AM 21.2 °F - 17.6 °F 86% 30.27 in 0.2 mi Calm Calm - N/A Fog Light Freezing Fog
7:33 AM 19.4 °F - 17.6 °F 93% 30.28 in 0.2 mi Calm Calm - N/A Fog Light Freezing Fog
7:54 AM 19.4 °F - 17.6 °F 93% 30.30 in 0.2 mi Calm Calm - N/A Fog Light Freezing Fog
8:13 AM 21.2 °F 13.6 °F 19.4 °F 93% 30.31 in 0.5 mi NW 5.8 mph - N/A Fog Light Freezing Fog
8:33 AM 21.2 °F 16.4 °F 19.4 °F 93% 30.31 in 0.5 mi NW 3.5 mph - N/A Fog Light Freezing Fog
8:54 AM 21.2 °F 13.6 °F 19.4 °F 93% 30.32 in 7.0 mi NW 5.8 mph - N/A   Scattered Clouds
9:13 AM 23.0 °F 17.0 °F 21.2 °F 93% 30.32 in 10.0 mi NW 4.6 mph - N/A   Clear
9:33 AM 24.8 °F - 23.0 °F 93% 30.33 in 10.0 mi Calm Calm - N/A   Clear
9:54 AM 26.6 °F 20.0 °F 24.8 °F 93% 30.33 in 10.0 mi WNW 5.8 mph - N/A   Clear
10:13 AM 26.6 °F 21.2 °F 26.6 °F 100% 30.33 in 10.0 mi WNW 4.6 mph - N/A   Clear
10:33 AM 28.4 °F 20.4 °F 26.6 °F 93% 30.33 in 10.0 mi WNW 8.1 mph - N/A   Clear
10:54 AM 28.4 °F 19.1 °F 28.4 °F 100% 30.33 in 10.0 mi WNW 10.4 mph - N/A   Clear
11:13 AM 30.2 °F 20.8 °F 28.4 °F 93% 30.34 in 10.0 mi WNW 11.5 mph - N/A   Clear
11:33 AM 32.0 °F 24.2 °F 26.6 °F 80% 30.34 in 10.0 mi WNW 9.2 mph - N/A   Clear
11:53 AM 32.0 °F 23.6 °F 24.8 °F 75% 30.34 in 10.0 mi West 10.4 mph - N/A   Clear
12:13 PM 32.0 °F 24.8 °F 24.8 °F 75% 30.33 in 10.0 mi West 8.1 mph - N/A   Clear
12:33 PM 33.8 °F 26.4 °F 26.6 °F 75% 30.33 in 10.0 mi WNW 9.2 mph - N/A   Clear
12:53 PM 33.8 °F 26.4 °F 26.6 °F 75% 30.33 in 10.0 mi West 9.2 mph - N/A   Clear
1:13 PM 33.8 °F 26.4 °F 24.8 °F 70% 30.32 in 10.0 mi West 9.2 mph - N/A   Clear
1:33 PM 35.6 °F 27.1 °F 26.6 °F 70% 30.32 in 10.0 mi West 12.7 mph - N/A   Clear
1:53 PM 35.6 °F 27.5 °F 24.8 °F 65% 30.31 in 10.0 mi West 11.5 mph 18.4 mph N/A   Clear
2:13 PM 35.6 °F 27.1 °F 26.6 °F 70% 30.29 in 10.0 mi West 12.7 mph - N/A   Clear
2:33 PM 35.6 °F 28.0 °F 26.6 °F 70% 30.29 in 10.0 mi West 10.4 mph - N/A   Clear
2:53 PM 35.6 °F 27.5 °F 26.6 °F 70% 30.28 in 10.0 mi West 11.5 mph - N/A   Clear
3:13 PM 35.6 °F 27.5 °F 26.6 °F 70% 30.28 in 10.0 mi West 11.5 mph - N/A   Clear
3:33 PM 35.6 °F 27.1 °F 28.4 °F 75% 30.28 in 10.0 mi WSW 12.7 mph - N/A   Clear
3:53 PM 33.8 °F 24.3 °F 28.4 °F 81% 30.27 in 10.0 mi WSW 13.8 mph - N/A   Clear
4:13 PM 33.8 °F 24.8 °F 26.6 °F 75% 30.27 in 10.0 mi WSW 12.7 mph - N/A   Clear
4:33 PM 33.8 °F 25.3 °F 26.6 °F 75% 30.26 in 10.0 mi WSW 11.5 mph - N/A   Clear
4:53 PM 32.0 °F 23.6 °F 26.6 °F 80% 30.26 in 10.0 mi WSW 10.4 mph - N/A   Clear
5:13 PM 32.0 °F 23.0 °F 26.6 °F 80% 30.26 in 10.0 mi WSW 11.5 mph - N/A   Clear
5:33 PM 32.0 °F 23.6 °F 26.6 °F 80% 30.26 in 10.0 mi WSW 10.4 mph - N/A   Clear
5:53 PM 30.2 °F 25.4 °F 26.6 °F 86% 30.26 in 10.0 mi SW 4.6 mph - N/A   Clear
6:13 PM 30.2 °F - 26.6 °F 86% 30.26 in 10.0 mi Calm Calm - N/A   Clear
6:33 PM 30.2 °F 26.7 °F 26.6 °F 86% 30.26 in 10.0 mi SSE 3.5 mph - N/A   Clear
6:53 PM 28.4 °F 22.2 °F 23.0 °F 80% 30.26 in 10.0 mi SSW 5.8 mph - N/A   Clear
7:13 PM 28.4 °F 24.6 °F 24.8 °F 86% 30.25 in 10.0 mi SW 3.5 mph - N/A   Clear
7:33 PM 26.6 °F - 24.8 °F 93% 30.25 in 10.0 mi Calm Calm - N/A   Clear
7:53 PM 26.6 °F - 24.8 °F 93% 30.24 in 10.0 mi Calm Calm - N/A   Clear
8:13 PM 26.6 °F 22.6 °F 23.0 °F 86% 30.24 in 10.0 mi South 3.5 mph - N/A   Clear
8:33 PM 26.6 °F - 23.0 °F 86% 30.24 in 10.0 mi Calm Calm - N/A   Clear
8:53 PM 26.6 °F - 23.0 °F 86% 30.24 in 10.0 mi Calm Calm - N/A   Clear
9:13 PM 26.6 °F - 23.0 °F 86% 30.23 in 10.0 mi Calm Calm - N/A   Clear
9:33 PM 26.6 °F - 23.0 °F 86% 30.23 in 10.0 mi Calm Calm - N/A   Clear
9:53 PM 26.6 °F - 23.0 °F 86% 30.23 in 10.0 mi Calm Calm - N/A   Clear
10:13 PM 23.0 °F - 21.2 °F 93% 30.22 in 10.0 mi Calm Calm - N/A   Clear
10:33 PM 23.0 °F - 21.2 °F 93% 30.22 in 4.0 mi Calm Calm - N/A   Clear
10:53 PM 21.2 °F - 19.4 °F 93% 30.21 in 0.5 mi Calm Calm - N/A Fog Light Freezing Fog
11:13 PM 21.2 °F - 19.4 °F 93% 30.21 in 2.0 mi Calm Calm - N/A   Clear
11:33 PM 21.2 °F - 19.4 °F 93% 30.20 in 7.0 mi Calm Calm - N/A   Clear
11:53 PM 21.2 °F - 19.4 °F 93% 30.20 in 0.5 mi Calm Calm - N/A Fog Light Freezing Fog